{"data":{"norad_id":26998,"epoch":"2026-09-19T09:44:02.933664Z","epoch_age_seconds":106183,"freshness":"FRESH","line1":"1 26998U 01055B   26262.40558951  .00000822  00000+0  77869-4 0  9992","line2":"2 26998  74.0678  45.2811 0001733 231.8515 128.2514 14.95463014344908","mean_motion":14.95463014,"eccentricity":0.0001733,"inclination_deg":74.0678,"raan_deg":45.2811,"arg_perigee_deg":231.8515,"mean_anomaly_deg":128.2514,"bstar":7.7869e-5,"rev_number":34490,"period_min":96.291248029488,"perigee_km":579.72996249957,"apogee_km":582.14197719091,"semimajor_km":6959.0729698452,"source":"CELESTRAK","updated_at":"2026-09-20T09:00:47.140711Z"}}